QPF
0.00 0.00 0.00 0.00 0.00 0.00 0.00 0.00 0.01 0.02 0.02 0.02 0.03 0.02 0.01 0.01 0.01 0.01 0.01 0.01 0.01 0.01 0.02 0.02 0.01 0.01 0.01 0.02 0.04 0.06 0.05 0.06 0.07 0.05 0.04 0.04 0.04 0.06 0.08 0.09 0.09 0.09 0.06 0.04
0.00 0.00 0.00 0.00 0.00 0.00 0.00 0.00 0.01 0.01 0.01 0.03 0.03 0.02 0.02 0.02 0.01 0.01 0.02 0.03 0.02 0.01 0.01 0.01 0.01 0.01 0.00 0.01 0.01 0.01 0.01 0.02 0.05 0.07 0.04 0.04 0.04 0.06 0.08 0.08 0.08 0.07 0.05 0.04
0.00 0.00 0.00 0.00 0.00 0.00 0.00 0.00 0.01 0.01 0.01 0.01 0.02 0.03 0.03 0.02 0.02 0.02 0.02 0.02 0.04 0.03 0.01 0.01 0.01 0.01 0.01 0.01 0.01 0.01 0.01 0.01 0.03 0.07 0.09 0.04 0.05 0.05 0.07 0.09 0.07 0.07 0.06 0.04
0.00 0.00 0.00 0.00 0.00 0.00 0.00 0.00 0.01 0.01 0.01 0.01 0.03 0.04 0.03 0.03 0.03 0.03 0.02 0.03 0.05 0.07 0.04 0.03 0.02 0.02 0.01 0.01 0.01 0.01 0.01 0.02 0.02 0.04 0.09 0.09 0.05 0.04 0.06 0.10 0.09 0.06 0.04 0.03
0.00 0.00 0.00 0.00 0.00 0.00 0.00 0.01 0.01 0.01 0.01 0.02 0.02 0.04 0.06 0.06 0.06 0.04 0.03 0.03 0.03 0.05 0.05 0.04 0.03 0.02 0.02 0.02 0.02 0.02 0.02 0.03 0.03 0.03 0.04 0.08 0.06 0.04 0.03 0.05 0.08 0.06 0.04 0.03
0.00 0.00 0.00 0.00 0.00 0.00 0.00 0.00 0.00 0.01 0.01 0.02 0.03 0.03 0.06 0.06 0.06 0.04 0.03 0.03 0.02 0.02 0.03 0.03 0.03 0.02 0.02 0.03 0.03 0.04 0.05 0.05 0.05 0.05 0.05 0.06 0.05 0.03 0.02 0.03 0.04 0.03 0.05 0.05
0.00 0.00 0.00 0.00 0.00 0.00 0.00 0.00 0.01 0.01 0.02 0.02 0.02 0.03 0.04 0.04 0.04 0.03 0.03 0.04 0.04 0.03 0.03 0.02 0.03 0.04 0.04 0.05 0.06 0.05 0.05 0.07 0.08 0.07 0.07 0.09 0.07 0.04 0.03 0.02 0.03 0.04 0.04 0.06
0.00 0.00 0.00 0.00 0.00 0.00 0.00 0.00 0.01 0.02 0.02 0.03 0.03 0.04 0.07 0.05 0.04 0.03 0.03 0.04 0.04 0.04 0.04 0.04 0.05 0.06 0.07 0.08 0.10 0.12 0.08 0.06 0.07 0.08 0.10 0.12 0.09 0.07 0.04 0.03 0.04 0.05 0.06 0.06
0.01 0.01 0.00 0.00 0.00 0.00 0.01 0.01 0.01 0.01 0.02 0.04 0.05 0.07 0.10 0.05 0.04 0.03 0.03 0.03 0.03 0.02 0.02 0.04 0.05 0.08 0.14 0.11 0.10 0.14 0.17 0.15 0.11 0.10 0.14 0.14 0.12 0.10 0.06 0.03 0.03 0.04 0.05 0.07
0.01 0.01 0.00 0.00 0.00 0.00 0.01 0.01 0.01 0.02 0.04 0.04 0.04 0.04 0.06 0.06 0.05 0.04 0.04 0.03 0.03 0.03 0.03 0.04 0.04 0.08 0.15 0.16 0.14 0.13 0.14 0.15 0.14 0.11 0.13 0.15 0.10 0.07 0.07 0.03 0.02 0.03 0.03 0.05
0.01 0.01 0.01 0.01 0.01 0.01 0.01 0.01 0.01 0.02 0.03 0.03 0.03 0.04 0.05 0.05 0.04 0.04 0.05 0.06 0.02 0.02 0.03 0.03 0.03 0.06 0.08 0.13 0.14 0.11 0.08 0.08 0.07 0.09 0.07 0.07 0.06 0.06 0.07 0.04 0.04 0.04 0.04 0.05
0.00 0.01 0.01 0.01 0.01 0.02 0.02 0.02 0.02 0.02 0.04 0.04 0.03 0.05 0.06 0.05 0.04 0.03 0.03 0.03 0.02 0.03 0.03 0.04 0.04 0.04 0.04 0.06 0.07 0.10 0.08 0.06 0.05 0.06 0.05 0.04 0.05 0.06 0.06 0.04 0.03 0.04 0.04 0.05
0.00 0.01 0.01 0.01 0.02 0.03 0.03 0.02 0.02 0.03 0.05 0.04 0.04 0.04 0.05 0.06 0.06 0.05 0.04 0.03 0.03 0.03 0.03 0.04 0.04 0.03 0.03 0.05 0.10 0.11 0.09 0.09 0.07 0.06 0.05 0.05 0.06 0.07 0.06 0.04 0.03 0.03 0.03 0.04
0.00 0.01 0.01 0.01 0.02 0.02 0.02 0.02 0.02 0.03 0.06 0.05 0.06 0.06 0.06 0.08 0.09 0.10 0.10 0.06 0.05 0.04 0.03 0.03 0.03 0.03 0.03 0.03 0.07 0.10 0.11 0.10 0.09 0.07 0.06 0.05 0.06 0.07 0.08 0.05 0.03 0.02 0.02 0.03
0.01 0.01 0.01 0.01 0.01 0.01 0.02 0.02 0.02 0.03 0.06 0.05 0.05 0.05 0.06 0.08 0.10 0.08 0.08 0.08 0.07 0.06 0.05 0.04 0.03 0.04 0.04 0.05 0.07 0.08 0.07 0.08 0.08 0.06 0.04 0.05 0.06 0.07 0.06 0.05 0.02 0.01 0.01 0.01
0.01 0.02 0.01 0.01 0.01 0.01 0.01 0.02 0.01 0.02 0.05 0.05 0.03 0.05 0.07 0.08 0.07 0.05 0.05 0.08 0.06 0.05 0.06 0.05 0.04 0.05 0.06 0.07 0.07 0.08 0.06 0.05 0.05 0.05 0.05 0.05 0.06 0.08 0.05 0.04 0.03 0.02 0.01 0.02
0.01 0.02 0.02 0.02 0.01 0.01 0.03 0.03 0.02 0.03 0.05 0.04 0.04 0.05 0.05 0.06 0.05 0.04 0.03 0.05 0.05 0.04 0.04 0.03 0.04 0.05 0.07 0.08 0.07 0.06 0.06 0.04 0.04 0.06 0.06 0.05 0.05 0.08 0.07 0.05 0.03 0.03 0.02 0.02
0.03 0.03 0.02 0.02 0.02 0.03 0.04 0.05 0.04 0.05 0.07 0.06 0.05 0.07 0.09 0.08 0.06 0.04 0.02 0.02 0.03 0.03 0.03 0.03 0.03 0.03 0.04 0.07 0.07 0.06 0.07 0.06 0.05 0.05 0.06 0.07 0.05 0.07 0.06 0.05 0.03 0.03 0.03 0.03
0.02 0.04 0.04 0.03 0.03 0.04 0.05 0.04 0.03 0.04 0.07 0.06 0.07 0.06 0.08 0.09 0.06 0.05 0.04 0.03 0.02 0.03 0.04 0.04 0.04 0.03 0.03 0.05 0.07 0.06 0.06 0.06 0.05 0.05 0.05 0.05 0.05 0.05 0.04 0.03 0.03 0.03 0.03 0.03
0.02 0.03 0.06 0.05 0.03 0.04 0.05 0.04 0.02 0.02 0.04 0.03 0.03 0.04 0.04 0.06 0.06 0.05 0.03 0.03 0.02 0.03 0.05 0.05 0.06 0.04 0.03 0.03 0.04 0.04 0.04 0.05 0.04 0.03 0.03 0.05 0.05 0.04 0.04 0.03 0.03 0.03 0.03 0.03
0.02 0.03 0.05 0.06 0.04 0.04 0.03 0.03 0.03 0.03 0.04 0.02 0.02 0.03 0.03 0.03 0.03 0.03 0.03 0.03 0.03 0.03 0.06 0.07 0.06 0.07 0.06 0.04 0.03 0.04 0.05 0.05 0.06 0.04 0.04 0.06 0.06 0.05 0.04 0.03 0.03 0.02 0.02 0.03
0.04 0.04 0.04 0.05 0.04 0.04 0.03 0.02 0.03 0.02 0.02 0.02 0.02 0.02 0.02 0.03 0.02 0.03 0.03 0.02 0.03 0.04 0.04 0.05 0.05 0.06 0.06 0.06 0.04 0.04 0.05 0.05 0.05 0.04 0.04 0.07 0.07 0.06 0.05 0.03 0.03 0.04 0.03 0.02
0.06 0.05 0.05 0.05 0.05 0.03 0.02 0.03 0.03 0.03 0.03 0.03 0.02 0.02 0.02 0.02 0.02 0.02 0.01 0.00 0.01 0.02 0.04 0.04 0.05 0.05 0.06 0.07 0.07 0.05 0.05 0.05 0.05 0.04 0.05 0.07 0.08 0.07 0.06 0.05 0.03 0.04 0.04 0.02
0.06 0.05 0.05 0.05 0.05 0.05 0.04 0.03 0.03 0.05 0.05 0.05 0.04 0.04 0.04 0.03 0.02 0.01 0.01 0.01 0.01 0.01 0.01 0.02 0.04 0.04 0.05 0.06 0.07 0.05 0.04 0.05 0.05 0.04 0.04 0.06 0.07 0.06 0.05 0.05 0.04 0.03 0.02 0.01
0.05 0.05 0.06 0.05 0.05 0.06 0.05 0.04 0.04 0.05 0.05 0.06 0.08 0.09 0.07 0.05 0.03 0.02 0.01 0.01 0.01 0.00 0.01 0.01 0.02 0.04 0.06 0.07 0.08 0.05 0.04 0.03 0.04 0.05 0.05 0.06 0.05 0.04 0.04 0.04 0.03 0.03 0.02 0.01
0.05 0.06 0.06 0.05 0.05 0.06 0.06 0.05 0.06 0.07 0.07 0.06 0.08 0.08 0.07 0.05 0.04 0.02 0.01 0.01 0.01 0.01 0.01 0.02 0.03 0.06 0.05 0.07 0.08 0.06 0.05 0.03 0.03 0.04 0.07 0.06 0.05 0.05 0.04 0.04 0.03 0.03 0.02 0.02
MSLP
1008.00 1008.74 1009.21 1009.37 1009.26 1008.95 1008.50 1008.00 1007.52 1007.08 1006.69 1006.34 1005.99 1005.63 1005.25 1004.86 1004.51 1004.22 1004.06 1004.04 1004.19 1004.48 1004.89 1005.37 1005.88 1006.37 1006.83 1007.26 1007.68 1008.10 1008.57 1009.08 1009.63 1010.20 1010.76 1011.28 1011.72 1012.08 1012.36 1012.60 1012.82 1013.07 1013.39 1013.79
1008.16 1008.73 1009.01 1009.03 1008.82 1008.49 1008.09 1007.71 1007.39 1007.13 1006.90 1006.66 1006.37 1005.99 1005.53 1005.02 1004.51 1004.07 1003.76 1003.62 1003.68 1003.91 1004.28 1004.74 1005.24 1005.73 1006.20 1006.65 1007.11 1007.60 1008.14 1008.75 1009.41 1010.09 1010.74 1011.33 1011.81 1012.18 1012.45 1012.65 1012.83 1013.04 1013.33 1013.72
1007.99 1008.39 1008.53 1008.45 1008.22 1007.93 1007.66 1007.47 1007.36 1007.31 1007.25 1007.12 1006.87 1006.45 1005.89 1005.21 1004.52 1003.88 1003.40 1003.11 1003.05 1003.21 1003.53 1003.97 1004.47 1004.97 1005.46 1005.95 1006.46 1007.01 1007.64 1008.34 1009.10 1009.88 1010.63 1011.29 1011.83 1012.22 1012.50 1012.68 1012.84 1013.03 1013.30 1013.68
1007.60 1007.85 1007.89 1007.77 1007.58 1007.41 1007.34 1007.37 1007.51 1007.67 1007.78 1007.74 1007.49 1007.00 1006.29 1005.42 1004.51 1003.66 1002.98 1002.53 1002.35 1002.43 1002.71 1003.14 1003.64 1004.16 1004.68 1005.21 1005.76 1006.36 1007.05 1007.82 1008.66 1009.52 1010.35 1011.08 1011.68 1012.13 1012.43 1012.64 1012.80 1012.99 1013.25 1013.62
1007.16 1007.29 1007.27 1007.17 1007.08 1007.09 1007.23 1007.52 1007.89 1008.25 1008.49 1008.50 1008.21 1007.61 1006.72 1005.63 1004.48 1003.41 1002.53 1001.92 1001.63 1001.64 1001.89 1002.32 1002.83 1003.38 1003.92 1004.47 1005.04 1005.66 1006.37 1007.18 1008.06 1008.97 1009.86 1010.66 1011.33 1011.85 1012.21 1012.47 1012.67 1012.87 1013.14 1013.51
1006.86 1006.90 1006.85 1006.81 1006.85 1007.05 1007.43 1007.94 1008.52 1009.03 1009.34 1009.34 1008.96 1008.20 1007.10 1005.78 1004.40 1003.11 1002.06 1001.32 1000.95 1000.91 1001.16 1001.59 1002.13 1002.69 1003.25 1003.79 1004.35 1004.95 1005.64 1006.43 1007.31 1008.24 1009.16 1010.02 1010.77 1011.36 1011.81 1012.14 1012.41 1012.66 1012.96 1013.34
1006.85 1006.81 1006.77 1006.80 1006.98 1007.35 1007.92 1008.61 1009.32 1009.90 1010.21 1010.14 1009.62 1008.67 1007.36 1005.82 1004.23 1002.77 1001.58 1000.76 1000.34 1000.30 1000.56 1001.02 1001.57 1002.14 1002.69 1003.21 1003.72 1004.26 1004.89 1005.62 1006.45 1007.36 1008.29 1009.20 1010.01 1010.69 1011.24 1011.67 1012.02 1012.34 1012.69 1013.09
1007.17 1007.08 1007.04 1007.13 1007.42 1007.92 1008.61 1009.39 1010.15 1010.72 1010.96 1010.76 1010.07 1008.93 1007.42 1005.69 1003.95 1002.37 1001.11 1000.26 999.84 999.82 1000.12 1000.61 1001.18 1001.75 1002.27 1002.73 1003.17 1003.61 1004.14 1004.78 1005.53 1006.40 1007.32 1008.25 1009.12 1009.89 1010.54 1011.08 1011.52 1011.93 1012.33 1012.77
1007.75 1007.62 1007.58 1007.72 1008.06 1008.62 1009.34 1010.14 1010.85 1011.33 1011.44 1011.07 1010.21 1008.89 1007.22 1005.37 1003.55 1001.93 1000.67 999.84 999.47 999.50 999.84 1000.36 1000.95 1001.50 1001.97 1002.36 1002.69 1003.03 1003.43 1003.96 1004.62 1005.42 1006.32 1007.26 1008.18 1009.03 1009.78 1010.42 1010.97 1011.46 1011.93 1012.41
1008.43 1008.27 1008.23 1008.37 1008.72 1009.27 1009.96 1010.67 1011.27 1011.60 1011.54 1011.00 1009.98 1008.53 1006.77 1004.88 1003.06 1001.48 1000.28 999.53 999.23 999.33 999.71 1000.25 1000.83 1001.35 1001.75 1002.05 1002.28 1002.49 1002.78 1003.20 1003.77 1004.51 1005.37 1006.31 1007.27 1008.18 1009.01 1009.75 1010.39 1010.96 1011.49 1012.01
1008.99 1008.82 1008.77 1008.89 1009.21 1009.69 1010.28 1010.86 1011.30 1011.45 1011.22 1010.53 1009.40 1007.89 1006.13 1004.28 1002.55 1001.08 1000.00 999.36 999.15 999.31 999.72 1000.26 1000.80 1001.25 1001.57 1001.78 1001.90 1002.01 1002.21 1002.53 1003.03 1003.71 1004.54 1005.48 1006.46 1007.42 1008.32 1009.12 1009.83 1010.46 1011.05 1011.61
1009.28 1009.10 1009.04 1009.13 1009.40 1009.79 1010.26 1010.68 1010.95 1010.93 1010.56 1009.77 1008.59 1007.09 1005.41 1003.69 1002.10 1000.80 999.87 999.36 999.24 999.43 999.84 1000.33 1000.80 1001.16 1001.39 1001.50 1001.53 1001.57 1001.69 1001.96 1002.41 1003.05 1003.87 1004.80 1005.79 1006.77 1007.71 1008.56 1009.32 1010.00 1010.62 1011.22
1009.21 1009.04 1008.98 1009.05 1009.26 1009.57 1009.91 1010.19 1010.30 1010.16 1009.68 1008.85 1007.69 1006.29 1004.74 1003.21 1001.82 1000.71 999.94 999.54 999.48 999.68 1000.03 1000.44 1000.80 1001.05 1001.17 1001.19 1001.15 1001.14 1001.22 1001.46 1001.90 1002.53 1003.33 1004.26 1005.25 1006.25 1007.19 1008.06 1008.85 1009.56 1010.21 1010.84
1008.82 1008.68 1008.63 1008.70 1008.87 1009.10 1009.35 1009.52 1009.52 1009.29 1008.77 1007.96 1006.88 1005.60 1004.25 1002.93 1001.76 1000.84 1000.21 999.90 999.85 1000.00 1000.26 1000.54 1000.76 1000.87 1000.89 1000.82 1000.73 1000.69 1000.77 1001.02 1001.47 1002.11 1002.92 1003.85 1004.83 1005.81 1006.76 1007.63 1008.42 1009.15 1009.82 1010.48
1008.25 1008.15 1008.13 1008.21 1008.36 1008.56 1008.74 1008.83 1008.77 1008.50 1007.98 1007.22 1006.25 1005.14 1003.98 1002.87 1001.91 1001.15 1000.64 1000.36 1000.28 1000.34 1000.46 1000.58 1000.63 1000.60 1000.50 1000.36 1000.24 1000.21 1000.31 1000.60 1001.08 1001.75 1002.57 1003.49 1004.47 1005.44 1006.36 1007.22 1008.01 1008.74 1009.44 1010.12
1007.72 1007.65 1007.66 1007.76 1007.92 1008.09 1008.24 1008.29 1008.19 1007.90 1007.41 1006.72 1005.86 1004.91 1003.93 1003.01 1002.21 1001.57 1001.12 1000.84 1000.69 1000.62 1000.58 1000.51 1000.39 1000.22 1000.01 999.81 999.67 999.65 999.80 1000.14 1000.68 1001.39 1002.23 1003.16 1004.12 1005.06 1005.97 1006.81 1007.60 1008.34 1009.05 1009.76
1007.40 1007.35 1007.39 1007.50 1007.66 1007.83 1007.95 1007.98 1007.86 1007.57 1007.09 1006.46 1005.70 1004.87 1004.03 1003.24 1002.55 1001.98 1001.55 1001.22 1000.97 1000.76 1000.55 1000.30 1000.02 999.71 999.41 999.16 999.02 999.03 999.23 999.63 1000.22 1000.98 1001.84 1002.78 1003.73 1004.66 1005.55 1006.38 1007.17 1007.92 1008.65 1009.39
1007.41 1007.36 1007.41 1007.53 1007.69 1007.84 1007.94 1007.93 1007.78 1007.47 1007.00 1006.39 1005.69 1004.93 1004.17 1003.45 1002.82 1002.28 1001.82 1001.43 1001.07 1000.72 1000.35 999.94 999.52 999.09 998.72 998.44 998.30 998.35 998.60 999.06 999.71 1000.50 1001.39 1002.33 1003.29 1004.21 1005.09 1005.92 1006.71 1007.48 1008.24 1009.01
1007.77 1007.71 1007.74 1007.84 1007.98 1008.09 1008.15 1008.09 1007.89 1007.54 1007.04 1006.42 1005.72 1004.98 1004.25 1003.56 1002.94 1002.38 1001.89 1001.42 1000.97 1000.50 1000.00 999.48 998.94 998.44 998.02 997.72 997.59 997.66 997.96 998.46 999.14 999.96 1000.88 1001.83 1002.79 1003.71 1004.59 1005.43 1006.24 1007.03 1007.82 1008.62
1008.41 1008.31 1008.30 1008.36 1008.45 1008.51 1008.50 1008.37 1008.10 1007.68 1007.13 1006.46 1005.73 1004.97 1004.23 1003.53 1002.89 1002.31 1001.78 1001.26 1000.73 1000.19 999.61 999.00 998.41 997.85 997.40 997.08 996.95 997.04 997.35 997.88 998.58 999.42 1000.34 1001.30 1002.26 1003.20 1004.09 1004.94 1005.77 1006.58 1007.40 1008.23
1009.19 1009.04 1008.98 1008.98 1009.00 1008.98 1008.89 1008.68 1008.33 1007.83 1007.21 1006.48 1005.70 1004.90 1004.13 1003.41 1002.75 1002.15 1001.59 1001.04 1000.49 999.90 999.29 998.65 998.02 997.45 996.97 996.64 996.50 996.58 996.89 997.40 998.09 998.92 999.83 1000.79 1001.76 1002.70 1003.60 1004.47 1005.32 1006.15 1006.99 1007.82
1009.99 1009.79 1009.67 1009.60 1009.54 1009.45 1009.27 1008.98 1008.55 1007.97 1007.28 1006.49 1005.66 1004.83 1004.03 1003.30 1002.63 1002.03 1001.47 1000.93 1000.38 999.80 999.19 998.55 997.92 997.34 996.85 996.50 996.33 996.37 996.63 997.10 997.75 998.54 999.42 1000.36 1001.32 1002.26 1003.17 1004.06 1004.92 1005.76 1006.60 1007.43
1010.71 1010.47 1010.30 1010.16 1010.03 1009.86 1009.61 1009.25 1008.75 1008.13 1007.39 1006.57 1005.72 1004.87 1004.07 1003.34 1002.68 1002.10 1001.57 1001.06 1000.55 1000.01 999.43 998.82 998.20 997.62 997.11 996.72 996.50 996.47 996.65 997.04 997.61 998.33 999.15 1000.05 1000.98 1001.91 1002.83 1003.72 1004.58 1005.42 1006.25 1007.06
1011.34 1011.07 1010.85 1010.66 1010.47 1010.24 1009.94 1009.53 1009.00 1008.35 1007.60 1006.78 1005.94 1005.11 1004.33 1003.64 1003.02 1002.49 1002.01 1001.56 1001.10 1000.61 1000.08 999.51 998.91 998.32 997.78 997.34 997.03 996.91 996.98 997.25 997.70 998.32 999.06 999.89 1000.78 1001.68 1002.58 1003.46 1004.32 1005.15 1005.95 1006.73
1011.89 1011.61 1011.36 1011.13 1010.89 1010.63 1010.29 1009.87 1009.34 1008.70 1007.98 1007.20 1006.40 1005.62 1004.90 1004.26 1003.71 1003.24 1002.83 1002.44 1002.05 1001.62 1001.14 1000.59 1000.01 999.40 998.82 998.31 997.91 997.66 997.59 997.72 998.03 998.52 999.15 999.89 1000.71 1001.57 1002.44 1003.30 1004.13 1004.93 1005.71 1006.45
1012.43 1012.14 1011.87 1011.61 1011.35 1011.06 1010.72 1010.31 1009.80 1009.21 1008.54 1007.83 1007.11 1006.41 1005.77 1005.20 1004.72 1004.32 1003.97 1003.65 1003.32 1002.95 1002.50 1001.99 1001.41 1000.78 1000.14 999.55 999.04 998.65 998.44 998.40 998.56 998.90 999.41 1000.04 1000.77 1001.57 1002.39 1003.21 1004.02 1004.79 1005.53 1006.22
Thickness
5765 5749 5741 5751 5756 5756 5756 5753 5752 5764 5783 5776 5770 5772 5781 5788 5788 5785 5784 5783 5783 5784 5786 5787 5787 5785 5780 5775 5771 5768 5764 5761 5759 5755 5750 5747 5746 5745 5744 5744 5742 5741 5739 5737
5743 5739 5757 5763 5764 5760 5755 5748 5751 5764 5779 5773 5765 5767 5778 5784 5784 5785 5783 5782 5782 5781 5779 5780 5780 5779 5776 5772 5768 5765 5762 5760 5757 5753 5749 5747 5744 5742 5741 5740 5739 5738 5737 5735
5734 5750 5765 5761 5756 5753 5752 5749 5752 5755 5767 5770 5762 5753 5764 5777 5782 5784 5785 5783 5781 5779 5776 5774 5774 5773 5771 5768 5765 5763 5760 5757 5754 5752 5747 5744 5740 5737 5735 5735 5735 5735 5734 5733
5739 5756 5759 5754 5754 5755 5744 5765 5764 5760 5746 5736 5748 5723 5748 5761 5766 5770 5772 5774 5774 5775 5772 5770 5769 5767 5766 5764 5762 5760 5757 5754 5751 5748 5744 5739 5735 5731 5731 5731 5731 5731 5731 5730
5737 5753 5751 5748 5758 5762 5757 5772 5766 5759 5744 5732 5735 5724 5734 5752 5752 5759 5766 5771 5771 5771 5769 5766 5766 5765 5763 5761 5758 5755 5752 5750 5747 5745 5741 5737 5733 5731 5729 5729 5728 5727 5727 5726
5743 5759 5758 5759 5769 5771 5770 5762 5754 5742 5727 5710 5727 5722 5723 5740 5752 5760 5765 5768 5769 5768 5766 5764 5764 5762 5759 5757 5754 5751 5747 5744 5742 5740 5737 5735 5731 5728 5726 5725 5723 5723 5723 5722
5729 5744 5759 5765 5754 5759 5755 5728 5704 5702 5694 5702 5728 5723 5726 5755 5765 5766 5765 5764 5766 5765 5762 5759 5757 5755 5752 5750 5749 5747 5744 5741 5738 5737 5734 5732 5730 5727 5725 5723 5722 5721 5719 5718
5705 5713 5744 5756 5751 5742 5741 5726 5699 5689 5689 5702 5722 5718 5737 5763 5770 5771 5770 5766 5763 5760 5758 5755 5754 5752 5748 5747 5746 5743 5741 5738 5736 5733 5731 5729 5727 5725 5724 5723 5722 5720 5718 5717
5704 5711 5747 5757 5762 5752 5737 5726 5729 5708 5704 5698 5706 5723 5739 5758 5760 5761 5761 5759 5756 5755 5754 5751 5750 5749 5745 5743 5742 5740 5738 5734 5732 5730 5728 5725 5724 5723 5722 5721 5720 5719 5717 5716
5717 5710 5732 5750 5756 5752 5747 5738 5714 5700 5688 5684 5700 5711 5720 5738 5744 5749 5751 5751 5751 5751 5749 5747 5746 5744 5742 5740 5739 5736 5733 5729 5728 5726 5725 5723 5722 5721 5721 5719 5718 5717 5716 5715
5720 5705 5716 5730 5729 5728 5731 5726 5715 5701 5697 5685 5683 5703 5740 5741 5744 5746 5748 5750 5749 5748 5746 5743 5741 5740 5738 5737 5735 5732 5729 5726 5723 5722 5721 5720 5719 5719 5719 5717 5716 5715 5714 5712
5713 5699 5696 5714 5734 5742 5734 5724 5711 5695 5692 5694 5688 5701 5745 5745 5746 5746 5744 5745 5745 5744 5743 5740 5738 5735 5733 5731 5729 5727 5726 5723 5722 5720 5718 5717 5717 5716 5715 5714 5714 5713 5711 5710
5709 5691 5680 5690 5705 5721 5722 5723 5719 5708 5696 5688 5685 5702 5736 5738 5737 5739 5740 5740 5740 5739 5737 5734 5732 5729 5727 5726 5724 5722 5720 5719 5718 5716 5714 5713 5713 5712 5711 5710 5710 5709 5708 5706
5712 5686 5680 5678 5689 5703 5707 5716 5718 5706 5688 5688 5696 5708 5720 5725 5728 5730 5733 5734 5734 5731 5730 5727 5724 5723 5722 5721 5719 5717 5715 5715 5713 5712 5711 5708 5708 5708 5708 5707 5706 5705 5704 5702
5699 5683 5690 5696 5706 5708 5708 5711 5715 5708 5704 5697 5704 5710 5719 5724 5727 5727 5728 5728 5726 5723 5722 5720 5719 5717 5716 5715 5714 5713 5711 5710 5708 5707 5706 5705 5705 5705 5704 5703 5701 5700 5699 5697
5686 5679 5684 5688 5702 5704 5703 5709 5712 5712 5711 5709 5710 5711 5723 5725 5723 5721 5721 5721 5718 5716 5715 5715 5714 5713 5712 5711 5709 5708 5706 5704 5703 5702 5701 5701 5700 5700 5699 5698 5696 5694 5693 5691
5674 5671 5668 5668 5687 5691 5685 5699 5705 5706 5710 5709 5703 5709 5716 5715 5713 5713 5715 5716 5715 5713 5712 5710 5710 5709 5707 5706 5705 5702 5701 5700 5697 5696 5696 5696 5696 5694 5693 5693 5691 5689 5687 5686
5667 5664 5657 5659 5670 5660 5681 5704 5707 5703 5705 5709 5709 5711 5714 5713 5712 5712 5713 5712 5710 5709 5707 5704 5703 5702 5702 5701 5699 5698 5697 5695 5693 5691 5690 5691 5690 5688 5687 5686 5684 5683 5682 5680
5670 5662 5652 5649 5652 5662 5681 5695 5698 5693 5691 5702 5703 5705 5707 5708 5703 5700 5706 5709 5708 5707 5703 5700 5699 5697 5696 5695 5694 5692 5690 5689 5687 5686 5685 5685 5685 5683 5681 5679 5678 5677 5675 5673
5664 5661 5651 5646 5646 5649 5669 5692 5702 5693 5678 5695 5699 5698 5699 5699 5686 5690 5700 5701 5701 5700 5698 5696 5694 5692 5690 5689 5689 5686 5684 5682 5681 5681 5681 5680 5680 5678 5676 5674 5673 5672 5670 5668
5645 5645 5643 5641 5641 5652 5673 5689 5694 5670 5672 5690 5695 5695 5695 5693 5692 5695 5695 5693 5694 5692 5691 5690 5687 5685 5683 5683 5683 5679 5678 5676 5677 5677 5676 5675 5674 5673 5671 5669 5667 5666 5664 5662
5635 5635 5636 5636 5634 5643 5670 5677 5669 5669 5679 5684 5688 5690 5689 5689 5690 5689 5687 5686 5686 5684 5683 5682 5679 5677 5677 5677 5676 5673 5671 5672 5673 5671 5670 5669 5668 5668 5667 5663 5661 5660 5658 5655
5632 5634 5634 5635 5637 5651 5662 5665 5669 5672 5672 5676 5678 5681 5684 5682 5682 5681 5680 5679 5679 5678 5675 5674 5672 5670 5669 5669 5669 5667 5666 5666 5665 5664 5663 5662 5661 5660 5659 5657 5655 5653 5650 5648
5630 5636 5633 5632 5638 5647 5653 5660 5665 5668 5668 5671 5673 5674 5676 5675 5675 5673 5673 5671 5670 5669 5668 5667 5665 5662 5661 5662 5662 5661 5661 5661 5659 5657 5655 5655 5653 5652 5652 5651 5650 5648 5644 5643
5622 5628 5626 5626 5633 5639 5646 5652 5656 5660 5662 5663 5665 5667 5668 5668 5666 5666 5665 5664 5662 5661 5659 5658 5657 5655 5654 5655 5655 5655 5655 5654 5652 5650 5648 5647 5646 5645 5644 5644 5644 5643 5642 5641
5616 5618 5619 5620 5627 5629 5633 5643 5650 5652 5652 5654 5656 5657 5659 5661 5658 5658 5657 5656 5655 5652 5651 5649 5648 5648 5647 5647 5647 5648 5648 5648 5645 5643 5641 5640 5639 5638 5638 5636 5635 5636 5636 5636